Starlink 30069

operational
NORAD ID: 56834 Int'l Des: 2023-079 Owner: SPXS Country: US Constellation: starlink
LEOCIRCULAR

Über Starlink 30069

Beschreibung wird geladen...

Live-Position

3D-Globus wird geladen...

Nächste Überflüge

Höhenverlauf

Altitude vs Time

uPlot chart will show altitude changes over time

Zweizeiliger Elementsatz

1 56834U 23079M 25260.22085976 -.00000698 00000-0 -35687-4 0 9999
2 56834 43.0016 329.6552 0001079 252.3046 107.7679 15.03347405126797
Epoch: 17. Sept. 2025 • Age: 25 hours

Aktueller Status

Höhe 555.8 km
Geschwindigkeit 7.59 km/s
Subsatellitenpunkt 15.13°N, 41.14°E
Startdatum 4. Juni 2023
Alter 2.2 years
Typ internet

Technische Details

Klassifizierung Payload
Masse 730.00 kg
Trockenmasse 700.00 kg
Gesamtmasse 730.00 kg
Länge 0.30 m
Durchmesser 4.10 m
Spannweite 29.00 m
Form Box + pan
Hersteller SPXS
Bus-Typ Starlink V2M
Phasenstatus In Orbit
Besitzer/Staat SPXS/US

Große Konstellationen

Loading constellations...